Weather History for Cairo, Egypt

Change the Weather History Date:

Tuesday, September 24, 2013

  Actual Average Record
Temperature  
Mean Temperature 78 °F -  
Max Temperature 87 °F 84 °F 104 °F (1996)
Min Temperature 69 °F 65 °F 68 °F (2012)
Cooling Degree Days 13    
Growing Degree Days 28 (Base 50)    
Moisture  
Dew Point 58 °F    
Average Humidity 51    
Maximum Humidity 65    
Minimum Humidity 29    
Precipitation  
Precipitation 0.00 in 0.00 in - ()
Sea Level Pressure  
Sea Level Pressure 29.94 in    
Wind  
Wind Speed 7 mph ()    
Max Wind Speed 18 mph    
Max Gust Speed -    
Visibility 6.1 miles    
Events      
Averages and records for this station are not official NWS values.
T = Trace of Precipitation, MM = Missing Value Source: Averaged Metar Reports

Daily Weather History Graph

Daily Weather History Graph

Search for Another Location

Airport:

Trip Planner

Search our weather history database for the weather conditions in past years. The results will help you decide how hot, cold, wet, or windy it might be!

Date:

Astronomy

Sep. 24, 2013 Rise Set
Actual Time 5:43 AM EET 5:48 PM EET
Civil Twilight 5:19 AM EET 6:12 PM EET
Nautical Twilight 4:51 AM EET 6:40 PM EET
Astronomical Twilight 4:23 AM EET 7:08 PM EET
Moon 9:11 PM EET (9/24) 10:19 AM EET (9/24)
Length of Visible Light 12h 52m
Length of Day
12h 04m
Waning Gibbous, 75% of the Moon is Illuminated
Sep 24
Waning Gibbous
Sep 27
Last Quarter
Oct 5
New
Oct 12
First Quarter
Oct 19
Full

Hourly Weather History & Observations

Time (EET) Temp. Heat Index Dew Point Humidity Pressure Visibility Wind Dir Wind Speed Gust Speed Precip Events Conditions
12:00 AM 73.4 °F - 59.0 °F 61% 29.92 in - NNW 6.9 mph - N/A   Clear
12:30 AM 73.4 °F - 59.0 °F 61% 29.92 in - North 4.6 mph - N/A   Clear
1:00 AM 71.6 °F - 57.2 °F 60% 29.92 in - NNE 4.6 mph - N/A   Clear
1:30 AM 71.6 °F - 57.2 °F 60% 29.92 in - NE 4.6 mph - N/A   Clear
2:00 AM 72 °F - 57 °F 50% 29.91 in 6 mi NNE 4.6 mph - -  
2:00 AM 71.6 °F - 57.2 °F 60% 29.92 in - NNE 4.6 mph - N/A   Clear
2:30 AM 71.6 °F - 57.2 °F 60% 29.92 in - East 3.5 mph - N/A   Clear
3:00 AM 71.6 °F - 57.2 °F 60% 29.92 in - East 3.5 mph - N/A   Clear
3:30 AM 71.6 °F - 57.2 °F 60% 29.92 in - East 3.5 mph - N/A   Clear
4:00 AM 69.8 °F - 57.2 °F 64% 29.89 in - East 6.9 mph - N/A   Clear
4:30 AM 69.8 °F - 57.2 °F 64% 29.89 in - East 6.9 mph - N/A   Clear
5:00 AM 69.8 °F - 57.2 °F 64% 29.89 in - East 5.8 mph - N/A   Clear
5:30 AM 69.8 °F - 57.2 °F 64% 29.89 in - East 5.8 mph - N/A   Clear
6:00 AM 69.8 °F - 57.2 °F 64% 29.89 in - East 4.6 mph - N/A   Clear
6:30 AM 71.6 °F - 57.2 °F 60% 29.89 in - East 4.6 mph - N/A   Clear
7:00 AM 73.4 °F - 59.0 °F 61% 29.92 in - ENE 4.6 mph - N/A   Clear
7:30 AM 75.2 °F - 59.0 °F 57% 29.92 in - ENE 4.6 mph - N/A   Clear
8:00 AM 75 °F - 59 °F 47% 29.93 in 6 mi East 8.1 mph - -  
8:00 AM 75.2 °F - 59.0 °F 57% 29.95 in - East 8.1 mph - N/A   Clear
8:30 AM 77.0 °F - 59.0 °F 54% 29.95 in - NE 4.6 mph - N/A   Clear
9:00 AM 78.8 °F - 59.0 °F 51% 29.95 in - Calm Calm - N/A   Clear
9:30 AM 78.8 °F - 59.0 °F 51% 29.95 in - Calm Calm - N/A   Clear
10:00 AM 80.6 °F 81.1 °F 59.0 °F 48% 29.95 in - North 3.5 mph - N/A   Clear
10:30 AM 80.6 °F 80.8 °F 57.2 °F 45% 29.95 in - North 6.9 mph - N/A   Clear
11:00 AM 82.4 °F 82.5 °F 59.0 °F 45% 29.95 in - North 8.1 mph - N/A   Clear
11:30 AM 82.4 °F 82.5 °F 59.0 °F 45% 29.95 in - NW 9.2 mph - N/A   Clear
12:00 PM 82.4 °F 82.5 °F 59.0 °F 45% 29.95 in - NW 9.2 mph - N/A   Clear
12:30 PM 84.2 °F 83.8 °F 59.0 °F 42% 29.95 in 6.2 mi NW 9.2 mph - N/A   Partly Cloudy
1:00 PM 86.0 °F 85.4 °F 59.0 °F 40% 29.95 in 6.2 mi WNW 9.2 mph - N/A   Scattered Clouds
1:30 PM 86.0 °F 85.4 °F 59.0 °F 40% 29.95 in 6.2 mi WNW 9.2 mph - N/A   Scattered Clouds
2:00 PM 87 °F - 59 °F 29% 29.93 in 6 mi WNW 15.0 mph - -   Mostly Cloudy
2:00 PM 87.8 °F 87.1 °F 59.0 °F 38% 29.92 in 6.2 mi WNW 15.0 mph - N/A   Mostly Cloudy
2:30 PM 87.8 °F 87.1 °F 59.0 °F 38% 29.92 in 6.2 mi WNW 15.0 mph - N/A   Mostly Cloudy
3:00 PM 86.0 °F 84.9 °F 57.2 °F 37% 29.92 in 6.2 mi WNW 15.0 mph - N/A   Mostly Cloudy
3:30 PM 86.0 °F 84.9 °F 57.2 °F 37% 29.92 in 6.2 mi WNW 15.0 mph - N/A   Mostly Cloudy
4:00 PM 86.0 °F 84.9 °F 57.2 °F 37% 29.92 in 6.2 mi WNW 12.7 mph - N/A   Scattered Clouds
4:30 PM 86.0 °F 84.5 °F 55.4 °F 35% 29.92 in 6.2 mi WNW 12.7 mph - N/A   Scattered Clouds
5:00 PM 84.2 °F 83.5 °F 57.2 °F 40% 29.92 in 6.2 mi NW 15.0 mph - N/A   Partly Cloudy
5:30 PM 84.2 °F 82.8 °F 53.6 °F 35% 29.92 in - NW 15.0 mph - N/A   Clear
6:00 PM 82.4 °F 81.4 °F 53.6 °F 37% 29.95 in - NW 13.8 mph - N/A   Clear
6:30 PM 82.4 °F 81.4 °F 53.6 °F 37% 29.95 in - NW 13.8 mph - N/A   Clear
7:00 PM 78.8 °F - 55.4 °F 44% 29.95 in - NNW 18.4 mph - N/A   Clear
7:30 PM 78.8 °F - 57.2 °F 47% 29.98 in - NNW 15.0 mph - N/A   Clear
8:00 PM 78 °F - 57 °F 38% 29.99 in 6 mi NNW 11.5 mph - -  
8:00 PM 78.8 °F - 57.2 °F 47% 29.98 in - NNW 11.5 mph - N/A   Clear
8:30 PM 78.8 °F - 57.2 °F 47% 29.98 in - NNW 11.5 mph - N/A   Clear
9:00 PM 75.2 °F - 60.8 °F 61% 30.01 in - North 11.5 mph - N/A   Clear
9:30 PM 75.2 °F - 60.8 °F 61% 30.01 in - North 10.4 mph - N/A   Clear
10:00 PM 75.2 °F - 60.8 °F 61% 30.01 in - North 10.4 mph - N/A   Clear
10:30 PM 75.2 °F - 60.8 °F 61% 30.01 in - North 10.4 mph - N/A   Clear
11:00 PM 73.4 °F - 60.8 °F 65% 30.01 in - NNE 8.1 mph - N/A   Clear
11:30 PM 73.4 °F - 59.0 °F 61% 30.01 in - NNE 8.1 mph - N/A   Clear